Weather at London City Airport

Public forecast

Using degrees Celsius for public forecast. Weather courtesy of forecast.io.

Current aviation weather report (METAR) for London City Airport

Retrieved 2021/01/23 09:20 UTC (7 minutes ago):

EGLC 230920Z AUTO 13003KT 9999 FEW006 01/M00 Q0994

Aviation forecast (TAF) for London City Airport

Forecast is more than 12 hours old.

Retrieved 2018/10/15 21:30 UTC (2 years ago):

TAF EGLC 152119Z 1521/1621 CNL